^^
Refsnesbakken Borettslag Station Historical Data
 
Daily Summary for March 01, 2024 Units:  Metric    English   Both
Daily Weekly Monthly Yearly
  Current: High: Low: Average:
Temperature: 4 °C 4.7 °C 3.5 °C 4.3 °C
Dew Point: 3.3 °C 4.3 °C 2.8 °C 3.7 °C
Humidity: 95% 97% 95% 96%
Wind Speed: 12.9km/h 20.5km/h 7.5km/h 14.6km/h
Wind Gust: 14.8km/h 20.9km/h - -
WindSSE - - SSE
Pressure: 1006.8 hPa 1006.8 hPa 1005.0 hPa -
Precipitation: 6.2 mm      
 
 
Tabular Data for March 01, 2024
Time Temperature Dew Point Pressure Wind Wind Speed Wind Gust Humidity Rainfall Rate (Hourly) solar
00:09 4.7 °C 4.3 °C 1005.5 hPa South 18.6 km/h 19.3 km/h 97% 1.2 mm 0 W/m2
00:13 4.7 °C 4.3 °C 1005.5 hPa South 18.6 km/h 19.3 km/h 97% 1.2 mm 0 W/m2
00:18 4.7 °C 4.3 °C 1005.6 hPa South 18.6 km/h 19.3 km/h 97% 1.2 mm 0 W/m2
00:24 4.7 °C 4.2 °C 1005.6 hPa South 18.6 km/h 19.3 km/h 97% 1.0 mm 0 W/m2
00:29 4.7 °C 4.2 °C 1005.7 hPa South 18.6 km/h 19.3 km/h 97% 0.8 mm 0 W/m2
00:34 4.6 °C 4.2 °C 1005.7 hPa South 18.6 km/h 19.3 km/h 97% 0.8 mm 0 W/m2
00:39 4.6 °C 4.2 °C 1005.7 hPa South 18.7 km/h 19.3 km/h 97% 0.8 mm 0 W/m2
00:44 4.6 °C 4.2 °C 1005.7 hPa South 18.6 km/h 19.3 km/h 97% 0.4 mm 0 W/m2
00:49 4.6 °C 4.1 °C 1005.7 hPa South 18.6 km/h 19.3 km/h 97% 0.4 mm 0 W/m2
00:54 4.6 °C 4.1 °C 1005.7 hPa South 18.6 km/h 19.3 km/h 97% 0.4 mm 0 W/m2
00:59 4.6 °C 4.1 °C 1005.7 hPa South 18.6 km/h 19.3 km/h 97% 0.2 mm 0 W/m2
01:04 4.6 °C 4.1 °C 1005.7 hPa South 18.3 km/h 19.3 km/h 97% 0.2 mm 0 W/m2
01:08 4.6 °C 4.1 °C 1005.7 hPa South 16.6 km/h 19.3 km/h 97% 0.4 mm 0 W/m2
01:14 4.6 °C 4.1 °C 1005.7 hPa South 16.6 km/h 16.7 km/h 97% 0.2 mm 0 W/m2
01:19 4.6 °C 4.1 °C 1005.7 hPa South 16.6 km/h 16.7 km/h 97% 0.2 mm 0 W/m2
01:24 4.6 °C 4.1 °C 1005.7 hPa South 16.6 km/h 16.7 km/h 97% 0.4 mm 0 W/m2
01:29 4.6 °C 4.1 °C 1005.7 hPa South 16.6 km/h 16.7 km/h 97% 0.4 mm 0 W/m2
01:34 4.6 °C 4.1 °C 1005.6 hPa South 16.6 km/h 16.7 km/h 97% 0.4 mm 0 W/m2
01:39 4.6 °C 4.2 °C 1005.7 hPa South 16.6 km/h 16.7 km/h 97% 0.6 mm 0 W/m2
01:44 4.6 °C 4.2 °C 1005.7 hPa South 16.6 km/h 16.7 km/h 97% 0.6 mm 0 W/m2
01:49 4.6 °C 4.1 °C 1005.6 hPa South 16.6 km/h 16.7 km/h 97% 0.6 mm 0 W/m2
01:53 4.6 °C 4.1 °C 1005.5 hPa South 16.6 km/h 16.7 km/h 97% 0.8 mm 0 W/m2
01:59 4.6 °C 4.1 °C 1005.6 hPa South 16.6 km/h 16.7 km/h 97% 0.8 mm 0 W/m2
02:04 4.6 °C 4.1 °C 1005.5 hPa South 16.6 km/h 16.7 km/h 97% 1.0 mm 0 W/m2
02:09 4.6 °C 4.1 °C 1005.5 hPa South 16.6 km/h 16.7 km/h 97% 0.8 mm 0 W/m2
02:14 4.6 °C 4.1 °C 1005.5 hPa South 16.6 km/h 16.7 km/h 97% 0.8 mm 0 W/m2
02:19 4.6 °C 4.2 °C 1005.4 hPa South 16.6 km/h 16.7 km/h 97% 1.0 mm 0 W/m2
02:24 4.6 °C 4.2 °C 1005.4 hPa South 16.6 km/h 16.7 km/h 97% 1.0 mm 0 W/m2
02:29 4.7 °C 4.2 °C 1005.4 hPa South 16.6 km/h 16.7 km/h 97% 1.0 mm 0 W/m2
02:34 4.7 °C 4.2 °C 1005.4 hPa South 17.7 km/h 18.5 km/h 97% 1.2 mm 0 W/m2
02:38 4.7 °C 4.2 °C 1005.3 hPa South 18.6 km/h 19.3 km/h 97% 1.2 mm 0 W/m2
02:43 4.7 °C 4.2 °C 1005.3 hPa South 18.6 km/h 19.3 km/h 97% 1.2 mm 0 W/m2
02:49 4.7 °C 4.2 °C 1005.4 hPa South 18.6 km/h 19.3 km/h 97% 1.2 mm 0 W/m2
02:54 4.7 °C 4.2 °C 1005.3 hPa South 18.6 km/h 19.3 km/h 97% 1.4 mm 0 W/m2
02:59 4.7 °C 4.2 °C 1005.2 hPa South 18.6 km/h 19.3 km/h 97% 1.2 mm 0 W/m2
03:04 4.7 °C 4.2 °C 1005.3 hPa SSE 16.8 km/h 19.3 km/h 97% 1.4 mm 0 W/m2
03:09 4.6 °C 4.2 °C 1005.2 hPa SSE 14.8 km/h 19.3 km/h 97% 1.2 mm 0 W/m2
03:14 4.6 °C 4.2 °C 1005.2 hPa SSE 14.8 km/h 14.8 km/h 97% 1.4 mm 0 W/m2
03:19 4.6 °C 4.1 °C 1005.2 hPa SSE 14.8 km/h 14.8 km/h 97% 1.2 mm 0 W/m2
03:24 4.5 °C 4.1 °C 1005.2 hPa SSE 14.7 km/h 14.8 km/h 97% 1.4 mm 0 W/m2
03:29 4.5 °C 4.1 °C 1005.2 hPa SSE 14.8 km/h 14.8 km/h 97% 1.2 mm 0 W/m2
03:34 4.5 °C 4.1 °C 1005.2 hPa SSE 14 km/h 14.8 km/h 97% 1.4 mm 0 W/m2
03:38 4.5 °C 4.1 °C 1005.2 hPa SSE 11.1 km/h 14.5 km/h 97% 1.4 mm 0 W/m2
03:43 4.5 °C 4.1 °C 1005.2 hPa SSE 11.1 km/h 11.3 km/h 97% 1.4 mm 0 W/m2
03:49 4.5 °C 4.1 °C 1005.1 hPa SSE 11.1 km/h 11.3 km/h 97% 1.4 mm 0 W/m2
03:54 4.5 °C 4.1 °C 1005.1 hPa SSE 11.1 km/h 11.3 km/h 97% 1.4 mm 0 W/m2
03:59 4.5 °C 4 °C 1005.1 hPa SSE 11.1 km/h 11.3 km/h 97% 1.4 mm 0 W/m2
04:04 4.4 °C 4 °C 1005.1 hPa SSE 11.1 km/h 11.3 km/h 97% 1.2 mm 0 W/m2
04:09 4.4 °C 4 °C 1005.0 hPa SSE 11.1 km/h 11.3 km/h 97% 1.2 mm 0 W/m2
04:14 4.4 °C 4 °C 1005.1 hPa SSE 11.1 km/h 11.3 km/h 97% 1.2 mm 0 W/m2
04:19 4.4 °C 4 °C 1005.1 hPa SSE 11.1 km/h 11.3 km/h 97% 1.4 mm 0 W/m2
04:24 4.4 °C 4 °C 1005.0 hPa SSE 11.1 km/h 11.3 km/h 97% 1.4 mm 0 W/m2
04:28 4.4 °C 4 °C 1005.1 hPa SSE 11.1 km/h 11.3 km/h 97% 1.2 mm 0 W/m2
04:34 4.4 °C 4 °C 1005.0 hPa SSE 11.1 km/h 11.3 km/h 97% 1.2 mm 0 W/m2
04:39 4.4 °C 4 °C 1005.0 hPa SSE 11.1 km/h 11.3 km/h 97% 1.0 mm 0 W/m2
04:44 4.4 °C 4 °C 1005.1 hPa SSE 11.1 km/h 11.3 km/h 97% 1.0 mm 0 W/m2
04:49 4.4 °C 4 °C 1005.1 hPa SSE 11.1 km/h 11.3 km/h 97% 1.0 mm 0 W/m2
04:54 4.4 °C 4 °C 1005.2 hPa SSE 11.1 km/h 11.3 km/h 97% 1.0 mm 0 W/m2
04:59 4.4 °C 4 °C 1005.2 hPa SSE 11.1 km/h 11.3 km/h 97% 0.8 mm 0 W/m2
05:04 4.4 °C 4 °C 1005.2 hPa SSE 11.1 km/h 11.3 km/h 97% 0.8 mm 0 W/m2
05:09 4.5 °C 4 °C 1005.1 hPa SSE 11.1 km/h 11.3 km/h 97% 1.0 mm 0 W/m2
05:13 4.5 °C 4.1 °C 1005.1 hPa SSE 11.1 km/h 11.3 km/h 97% 1.0 mm 0 W/m2
05:19 4.5 °C 4.1 °C 1005.1 hPa SSE 11.1 km/h 11.3 km/h 97% 1.0 mm 0 W/m2
05:24 4.5 °C 4.1 °C 1005.1 hPa SSE 11.1 km/h 11.3 km/h 97% 0.8 mm 0 W/m2
05:29 4.6 °C 4.1 °C 1005.2 hPa SSE 11.1 km/h 11.3 km/h 97% 0.8 mm 0 W/m2
05:34 4.6 °C 4.2 °C 1005.2 hPa SSE 11.1 km/h 11.3 km/h 97% 1.0 mm 0 W/m2
05:39 4.6 °C 4.2 °C 1005.2 hPa SSE 11.1 km/h 11.3 km/h 97% 1.0 mm 0 W/m2
05:44 4.6 °C 4.2 °C 1005.2 hPa SSE 11.1 km/h 11.3 km/h 97% 1.0 mm 0 W/m2
05:49 4.6 °C 4.2 °C 1005.2 hPa SSE 11.1 km/h 11.3 km/h 97% 1.0 mm 0 W/m2
05:53 4.6 °C 4.2 °C 1005.2 hPa SSE 11.1 km/h 11.3 km/h 97% 1.0 mm 0 W/m2
05:59 4.6 °C 4.2 °C 1005.1 hPa SSE 11.1 km/h 11.3 km/h 97% 1.0 mm 0 W/m2
06:04 4.6 °C 4.2 °C 1005.0 hPa SSE 11.1 km/h 11.3 km/h 97% 1.2 mm 0 W/m2
06:09 4.6 °C 4.2 °C 1005.1 hPa SSE 11.1 km/h 11.3 km/h 97% 1.2 mm 0 W/m2
06:14 4.6 °C 4.2 °C 1005.1 hPa SSE 11.1 km/h 11.3 km/h 97% 1.0 mm 0 W/m2
06:19 4.6 °C 4.2 °C 1005.2 hPa SSE 11.1 km/h 11.3 km/h 97% 1.0 mm 0 W/m2
06:24 4.6 °C 4.2 °C 1005.2 hPa SSE 11.1 km/h 11.3 km/h 97% 1.0 mm 0 W/m2
06:29 4.7 °C 4.2 °C 1005.2 hPa SSE 11.1 km/h 11.3 km/h 97% 1.0 mm 0 W/m2
06:34 4.7 °C 4.2 °C 1005.2 hPa SSE 9.3 km/h 11.3 km/h 97% 1.0 mm 0 W/m2
06:39 4.7 °C 4.2 °C 1005.2 hPa SE 7.5 km/h 11.3 km/h 97% 1.0 mm 0 W/m2
06:44 4.7 °C 4.2 °C 1005.4 hPa SE 7.5 km/h 8 km/h 97% 1.0 mm 0 W/m2
06:49 4.7 °C 4.2 °C 1005.4 hPa SE 7.5 km/h 8 km/h 97% 1.0 mm 0 W/m2
06:54 4.7 °C 4.2 °C 1005.4 hPa SE 7.5 km/h 8 km/h 97% 1.0 mm 0 W/m2
06:58 4.7 °C 4.2 °C 1005.5 hPa SE 7.5 km/h 8 km/h 97% 0.8 mm 0 W/m2
07:03 4.7 °C 4.2 °C 1005.5 hPa SE 8.5 km/h 9.3 km/h 96.5% 0.8 mm 0 W/m2
07:08 4.7 °C 4.1 °C 1005.5 hPa SE 9.4 km/h 9.7 km/h 96.2% 0.6 mm 0 W/m2
07:13 4.7 °C 4.2 °C 1005.5 hPa SE 9.4 km/h 9.7 km/h 96.8% 0.6 mm 0 W/m2
07:19 4.7 °C 4.1 °C 1005.7 hPa SE 9.4 km/h 9.7 km/h 96% 0.6 mm 0 W/m2
07:24 4.7 °C 4.2 °C 1005.7 hPa SE 9.4 km/h 9.7 km/h 96.5% 0.4 mm 0 W/m2
07:29 4.7 °C 4.2 °C 1005.7 hPa SE 9.4 km/h 9.7 km/h 97% 0.4 mm 0 W/m2
07:34 4.7 °C 4.2 °C 1005.8 hPa SE 10.6 km/h 11.1 km/h 97% 0.2 mm 0 W/m2
07:39 4.7 °C 4.2 °C 1005.9 hPa SE 11.1 km/h 11.3 km/h 96.5% 0.2 mm 0 W/m2
07:44 4.7 °C 4.1 °C 1005.8 hPa SE 11.1 km/h 11.3 km/h 96% 0.2 mm 0 W/m2
07:49 4.7 °C 4.1 °C 1005.9 hPa SE 11.1 km/h 11.3 km/h 96% 0.0 mm 0 W/m2
07:54 4.7 °C 4.1 °C 1005.9 hPa SE 11.1 km/h 11.3 km/h 96% 0.0 mm 0 W/m2
07:59 4.7 °C 4.1 °C 1006.0 hPa SE 11.1 km/h 11.3 km/h 96% 0.0 mm 0 W/m2
08:04 4.5 °C 4 °C 1006.0 hPa SE 13.6 km/h 14.8 km/h 96% 0.0 mm 0 W/m2
08:09 3.9 °C 3.3 °C 1006.0 hPa SE 14.8 km/h 14.8 km/h 96% 0.0 mm 5 W/m2
08:14 3.9 °C 3.3 °C 1006.0 hPa SE 14.8 km/h 14.8 km/h 96% 0.0 mm 7 W/m2
08:19 3.9 °C 3.3 °C 1006.1 hPa SE 14.8 km/h 14.8 km/h 96% 0.0 mm 9 W/m2
08:24 3.9 °C 3.3 °C 1006.2 hPa SE 14.8 km/h 14.8 km/h 96% 0.0 mm 14 W/m2
08:29 3.9 °C 3.2 °C 1006.2 hPa SE 14.8 km/h 14.8 km/h 95.3% 0.0 mm 16 W/m2
08:34 3.8 °C 3.1 °C 1006.3 hPa SE 16 km/h 16.7 km/h 95% 0.0 mm 14 W/m2
08:38 3.8 °C 3.1 °C 1006.3 hPa SSE 16.6 km/h 16.7 km/h 95% 0.0 mm 12 W/m2
08:43 3.8 °C 3.1 °C 1006.4 hPa SSE 16.6 km/h 16.7 km/h 95% 0.0 mm 14 W/m2
08:49 3.8 °C 3.1 °C 1006.4 hPa SSE 16.6 km/h 16.7 km/h 95% 0.0 mm 11 W/m2
08:54 3.7 °C 3 °C 1006.5 hPa SSE 16.6 km/h 16.7 km/h 95% 0.0 mm 11 W/m2
08:59 3.6 °C 2.9 °C 1006.5 hPa SSE 16.6 km/h 16.7 km/h 95% 0.0 mm 12 W/m2
09:04 3.6 °C 2.9 °C 1006.5 hPa SSE 15.7 km/h 16.1 km/h 95% 0.0 mm 14 W/m2
09:09 3.6 °C 2.9 °C 1006.4 hPa SSE 14.7 km/h 16.1 km/h 95% 0.0 mm 14 W/m2
09:14 3.6 °C 2.9 °C 1006.5 hPa SSE 14.8 km/h 14.8 km/h 95% 0.0 mm 18 W/m2
09:19 3.6 °C 2.9 °C 1006.5 hPa SSE 14.8 km/h 14.8 km/h 95% 0.0 mm 18 W/m2
09:24 3.6 °C 2.9 °C 1006.5 hPa SSE 14.8 km/h 14.8 km/h 95% 0.0 mm 18 W/m2
09:29 3.6 °C 2.8 °C 1006.7 hPa SSE 14.8 km/h 14.8 km/h 95% 0.0 mm 14 W/m2
09:34 3.6 °C 2.8 °C 1006.6 hPa SSE 17.2 km/h 18.5 km/h 95% 0.0 mm 19 W/m2
09:38 3.6 °C 2.8 °C 1006.5 hPa SSE 18.6 km/h 19.3 km/h 95% 0.0 mm 21 W/m2
09:43 3.6 °C 2.8 °C 1006.5 hPa SSE 18.7 km/h 19.3 km/h 95% 0.0 mm 19 W/m2
09:49 3.5 °C 2.8 °C 1006.5 hPa SSE 18.6 km/h 19.3 km/h 95% 0.0 mm 21 W/m2
09:54 3.5 °C 2.8 °C 1006.6 hPa SSE 18.6 km/h 19.3 km/h 95% 0.0 mm 19 W/m2
09:59 3.5 °C 2.8 °C 1006.6 hPa SSE 18.6 km/h 19.3 km/h 95% 0.0 mm 21 W/m2
10:04 3.5 °C 2.8 °C 1006.6 hPa SSE 19.9 km/h 20.4 km/h 95% 0.0 mm 21 W/m2
10:09 3.6 °C 2.8 °C 1006.6 hPa SSE 20.5 km/h 20.9 km/h 95% 0.0 mm 21 W/m2
10:14 3.6 °C 2.9 °C 1006.7 hPa SSE 20.5 km/h 20.9 km/h 95% 0.0 mm 21 W/m2
10:19 3.6 °C 2.8 °C 1006.6 hPa SSE 20.5 km/h 20.9 km/h 95% 0.0 mm 26 W/m2
10:24 3.6 °C 2.8 °C 1006.5 hPa SSE 20.5 km/h 20.9 km/h 95% 0.0 mm 26 W/m2
10:29 3.6 °C 2.8 °C 1006.6 hPa SSE 20.5 km/h 20.9 km/h 95% 0.0 mm 25 W/m2
10:34 3.6 °C 2.8 °C 1006.6 hPa SE 20.5 km/h 20.9 km/h 95% 0.0 mm 35 W/m2
10:39 3.6 °C 2.9 °C 1006.6 hPa SE 20.5 km/h 20.9 km/h 95% 0.0 mm 35 W/m2
10:44 3.6 °C 2.8 °C 1006.6 hPa SE 20.5 km/h 20.9 km/h 95% 0.0 mm 35 W/m2
10:48 3.6 °C 2.8 °C 1006.5 hPa SE 20.5 km/h 20.9 km/h 95% 0.0 mm 39 W/m2
10:54 3.6 °C 2.8 °C 1006.6 hPa SE 20.5 km/h 20.9 km/h 95% 0.0 mm 44 W/m2
10:59 3.6 °C 2.9 °C 1006.6 hPa SE 20.5 km/h 20.9 km/h 95% 0.0 mm 44 W/m2
11:04 3.6 °C 2.9 °C 1006.6 hPa SE 18.6 km/h 20.9 km/h 95% 0.0 mm 44 W/m2
11:09 3.6 °C 2.9 °C 1006.7 hPa SE 14.8 km/h 20.9 km/h 95% 0.0 mm 56 W/m2
11:14 3.6 °C 2.9 °C 1006.7 hPa SE 14.8 km/h 14.8 km/h 95% 0.0 mm 67 W/m2
11:19 3.7 °C 3 °C 1006.6 hPa SE 14.8 km/h 14.8 km/h 95% 0.0 mm 74 W/m2
11:24 3.7 °C 3 °C 1006.6 hPa SE 14.8 km/h 14.8 km/h 95% 0.0 mm 70 W/m2
11:29 3.8 °C 3.1 °C 1006.6 hPa SE 14.8 km/h 14.8 km/h 95% 0.0 mm 79 W/m2
11:34 3.8 °C 3.1 °C 1006.6 hPa SE 14.8 km/h 14.8 km/h 95% 0.0 mm 56 W/m2
11:39 3.8 °C 3.1 °C 1006.7 hPa SSE 14.8 km/h 14.8 km/h 95% 0.0 mm 51 W/m2
11:44 3.8 °C 3.1 °C 1006.7 hPa SSE 14.8 km/h 14.8 km/h 95% 0.0 mm 47 W/m2
11:49 3.8 °C 3.1 °C 1006.7 hPa SSE 14.7 km/h 14.8 km/h 95% 0.0 mm 56 W/m2
11:54 3.9 °C 3.1 °C 1006.7 hPa SSE 14.8 km/h 14.8 km/h 95% 0.0 mm 63 W/m2
11:59 3.9 °C 3.2 °C 1006.8 hPa SSE 14.8 km/h 14.8 km/h 95% 0.0 mm 65 W/m2
12:04 4 °C 3.3 °C 1006.8 hPa SSE 12.9 km/h 14.8 km/h 95% 0.0 mm 62 W/m2
Refsnesbakken Borettslag
Compliments of Weather Underground - 2 mb